sat.trackr.live / text

‹ back to catalog

STARLINK-35445

NORAD 65880 · 2025-223AC

PAYLOAD ACTIVE UNKNOWN

§ Identity

Operator
Country
US
Launch date
2025-10-03
Launch site
AFWTR
Launch vehicle
Mass (kg)
RCS (m²)

Purposes: comms

External: N2YO · Heavens-Above · Gunter

§ Orbital elements

Epoch: 2026-05-25T03:26:55.875264Z

Period
93.85 min
Inclination
53.1599°
Eccentricity
0.0001012
Mean motion
15.34409084 rev/d
Perigee alt
462.0 km
Apogee alt
463.4 km
Semi-major
6,840.8 km
B*
4.5655e-4
RAAN
298.8645°
Arg perigee
77.8292°
Mean anomaly
282.2824°
Rev number
3,591

§ Raw data

STARLINK-354451 65880U 25223AC  26145.14370226  .00015085  00000+0  45655-3 0  99902 65880  53.1599 298.8645 0001012  77.8292 282.2824 15.34409084 35916

JSON: /api/v1/satellites/65880 · /tle

For live sub-satellite position, see the globe view (requires WebGL).

§ Visibility from observer

Set your observer location to see the next 7 days of passes ≥ 10°. The values pass through the URL so the page stays shareable.

No JS? Fill the form by hand. The geolocation button needs JavaScript.